Simultaneous Nadir Overpasses (SNOs) Predictions

Prediction of SNOs between METOP-C and LANDSAT-8 Satellite Orbit:

Table of predicted SNOs for the next 14.0 days since TLE Epoch: 7/26/2019
Index Date (METOP-C) Time (METOP-C) Lat,Lon (METOP-C) SZA (METOP-C ) Date (LANDSAT-8) Time (LANDSAT-8) Lat,Lon (LANDSAT-8) SZA (LANDSAT-8 ) Distance(km) Time Diff (sec)
1 07/27/2019 20:29:51 81.13, -87.53 63.98 07/27/2019 20:30:09 81.13, -87.46 63.99 1.30 18
2 07/27/2019 21:20:28 -81.17, 81.01 115.86 07/27/2019 21:19:34 -81.17, 80.84 115.91 2.86 54
3 07/30/2019 16:04:13 81.14, -20.89 64.67 07/30/2019 16:04:26 81.13, -20.94 64.67 1.07 13
4 07/30/2019 16:54:52 -81.15, 146.90 115.27 07/30/2019 16:53:52 -81.15, 147.02 115.28 2.11 60
5 08/02/2019 11:38:34 81.14, 45.75 65.40 08/02/2019 11:38:42 81.14, 45.68 65.40 1.25 8
6 08/02/2019 12:29:13 -81.16,-146.46 114.53 08/02/2019 12:28:08 -81.16,-146.33 114.55 2.29 65
7 08/05/2019 07:12:57 81.14, 112.02 66.13 08/05/2019 07:13:00 81.14, 112.04 66.13 0.49 3
8 08/05/2019 08:03:35 -81.17, -79.80 113.76 08/05/2019 08:02:26 -81.16, -79.94 113.81 2.33 69
9 08/08/2019 01:56:40 -81.12, 10.46 113.19 08/08/2019 01:57:53 -81.12, 10.49 113.15 0.56 73
10 08/08/2019 02:47:19 81.15, 178.65 66.94 08/08/2019 02:47:18 81.14, 178.51 66.92 2.46 1




NCC Satellite Simultaneous Nadir Overpasses (SNOs) Prediction Service
